COSMO-SKYMED 4

Last updated on Sun Dec 14 2025 00:02:31 GMT+0000 (Coordinated Universal Time)

1 37216U 10060A 25347.58731927 .00000818 00000+0 10934-3 0 9995 2 37216 97.8809 168.8982 0001457 91.0781 269.0599 14.82145679817077
UTC large
Height (km)
Speed (km/s)
/
Latitude / Longitude
Inclination (degrees)
Orbital Period (minutes)
Azimuth
Elevation
Range (km)
Doppler Factor

Next 0 passes for location: London (51.5072 / 0.1276)

Sorry there are no passes over London.